Thermal, CA

1:50 PM PST on February 24, 2017 (GMT -0800)
Desert Resorts Regional

Weather History for KTRM - December, 2012

Change the Weather History Date:

Monday, December 10, 2012

  Actual Average Record
Temperature  
Mean Temperature 54 °F 53 °F  
Max Temperature 71 °F 70 °F 88 °F (1950)
Min Temperature 36 °F 36 °F 21 °F (2013)
Degree Days  
Heating Degree Days 11 12  
Month to date heating degree days 26 112  
Since 1 July heating degree days 123 279  
Cooling Degree Days 0 0  
Month to date cooling degree days 6 0  
Year to date cooling degree days 4282 3686  
Growing Degree Days 4 (Base 50)    
Moisture  
Dew Point 32 °F    
Average Humidity 49    
Maximum Humidity 76    
Minimum Humidity 22    
Precipitation  
Precipitation 0.00 in 0.01 in 0.47 in (1959)
Month to date precipitation T 0.10  
Year to date precipitation 2.40 2.95  
Since 1 July precipitation 2.04  
Snow  
Snow 0.00 in - - ()
Month to date snowfall 0.0  
Year to date snowfall 0.0  
Snow Depth 0.00 in    
Sea Level Pressure  
Sea Level Pressure 30.11 in    
Wind  
Wind Speed 3 mph (South)    
Max Wind Speed 10 mph    
Max Gust Speed 13 mph    
Visibility 10 miles    
Events      
T = Trace of Precipitation, MM = Missing Value Source: NWS Daily Summary

Daily Weather History Graph

Daily Weather History Graph

Search for Another Location

Airport or City:

Trip Planner

Search our weather history database for the weather conditions in past years. The results will help you decide how hot, cold, wet, or windy it might be!

Date:

Astronomy

Dec. 10, 2012 Rise Set
Actual Time 6:38 AM PST 4:36 PM PST
Civil Twilight 6:11 AM PST 5:04 PM PST
Nautical Twilight 5:40 AM PST 5:35 PM PST
Astronomical Twilight 5:09 AM PST 6:05 PM PST
Moon 3:32 AM PST (12/10) 2:25 PM PST (12/10)
Length of Visible Light 10h 53m
Length of Day
9h 58m
Waning Crescent, 9% of the Moon is Illuminated
Dec 10
Waning Crescent
Dec 13
New
Dec 19
First Quarter
Dec 28
Full
Jan 4
Last Quarter

Hourly Weather History & Observations

Time (PST) Temp. Windchill Dew Point Humidity Pressure Visibility Wind Dir Wind Speed Gust Speed Precip Events Conditions
12:52 AM 46.9 °F - 30.0 °F 52% 30.16 in 10.0 mi Calm Calm - N/A   Clear
1:52 AM 45.0 °F 43.5 °F 30.9 °F 58% 30.17 in 10.0 mi SSW 3.5 mph - N/A   Clear
2:52 AM 45.0 °F - 30.9 °F 58% 30.17 in 10.0 mi Calm Calm - N/A   Clear
3:52 AM 45.0 °F 43.5 °F 32.0 °F 60% 30.17 in 10.0 mi NNW 3.5 mph - N/A   Clear
4:52 AM 44.1 °F 41.5 °F 32.0 °F 63% 30.17 in 10.0 mi North 4.6 mph - N/A   Clear
5:52 AM 37.9 °F - 30.0 °F 73% 30.17 in 10.0 mi Calm Calm - N/A   Clear
6:52 AM 37.0 °F 34.5 °F 30.9 °F 79% 30.18 in 10.0 mi NNW 3.5 mph - N/A   Clear
7:52 AM 48.0 °F - 32.0 °F 54% 30.18 in 10.0 mi Calm Calm - N/A   Clear
8:52 AM 57.9 °F - 32.0 °F 37% 30.19 in 10.0 mi Calm Calm - N/A   Clear
9:52 AM 64.0 °F - 36.0 °F 35% 30.19 in 10.0 mi SSE 6.9 mph - N/A   Clear
10:52 AM 68.0 °F - 30.0 °F 24% 30.18 in 9.0 mi SSE 8.1 mph - N/A   Clear
11:52 AM 69.1 °F - 28.0 °F 22% 30.14 in 10.0 mi Variable 5.8 mph - N/A   Clear
12:52 PM 70.0 °F - 28.9 °F 22% 30.11 in 10.0 mi ESE 4.6 mph - N/A   Clear
1:52 PM 70.0 °F - 30.0 °F 23% 30.07 in 10.0 mi SE 4.6 mph - N/A   Clear
2:52 PM 70.0 °F - 28.9 °F 22% 30.06 in 10.0 mi South 4.6 mph - N/A   Clear
3:52 PM 69.1 °F - 30.9 °F 24% 30.05 in 10.0 mi South 4.6 mph - N/A   Clear
4:52 PM 57.9 °F - 34.0 °F 41% 30.03 in 10.0 mi SSE 3.5 mph - N/A   Clear
5:52 PM 51.1 °F - 32.0 °F 48% 30.04 in 10.0 mi Calm Calm - N/A   Clear
6:52 PM 48.0 °F - 33.1 °F 56% 30.04 in 10.0 mi Calm Calm - N/A   Clear
7:52 PM 45.0 °F 42.6 °F 32.0 °F 60% 30.05 in 10.0 mi West 4.6 mph - N/A   Clear
8:52 PM 45.0 °F - 33.1 °F 63% 30.05 in 10.0 mi Calm Calm - N/A   Clear
9:52 PM 48.0 °F - 34.0 °F 58% 30.06 in 10.0 mi NNW 5.8 mph - N/A   Clear
10:52 PM 44.1 °F - 33.1 °F 65% 30.05 in 10.0 mi Calm Calm - N/A   Clear
11:52 PM 50.0 °F - 33.1 °F 52% 30.05 in 10.0 mi North 3.5 mph - N/A   Clear